User: anonymous   Login
Location: Nebula Knoll Observatory
(43.6666°N, 71.0000°W)
Time: 12:22:54
(UTC-04:00)
Language:

SeaSat 1 - Orbit

View from above orbital plane
View from above orbital plane
View from above satellite
View from above satellite

Ground track
Ground track

The orbit data is extracted from the following two-line orbital elements,

1 10967U 78064A   17262.70781607 -.00000057 +00000-0 +23587-4 0  9994
2 10967 108.0106 136.9879 0001561 308.8108 051.2896 14.43662904060012
Epoch (UTC): 19 September 2017 16:59:15
Eccentricity: 0.0001561
inclination: 108.0106°
perigee height: 745 km
apogee height: 747 km
right ascension of ascending node: 136.9879°
argument of perigee: 308.8108°
revolutions per day: 14.43662904
mean anomaly at epoch: 51.2896°
orbit number at epoch: 6001

The dashed part of the orbit path shows where the satellite is in the earth's shadow,  

DLR